Time,TemperatureF,DewpointF,PressureIn,WindDirection,WindDirectionDegrees,WindSpeedMPH,WindSpeedGustMPH,Humidity,HourlyPrecipIn,Conditions,Clouds,dailyrainin,SoftwareType,DateUTC
2013-08-04 00:01:00,57.6,52.7,29.93,ENE,67,0.0,0.0,84,0.00,,,0.00,WUHU21623XXSP,2013-08-04 04:01:00,
2013-08-04 00:06:00,57.4,52.9,29.93,ENE,67,0.0,0.0,85,0.00,,,0.00,WUHU21623XXSP,2013-08-04 04:06:00,
2013-08-04 00:11:00,57.4,52.9,29.93,ENE,67,0.0,0.0,85,0.00,,,0.00,WUHU21623XXSP,2013-08-04 04:11:00,
2013-08-04 00:16:00,57.0,52.5,29.93,ENE,67,0.0,0.0,85,0.00,,,0.00,WUHU21623XXSP,2013-08-04 04:16:00,
2013-08-04 00:21:00,57.0,52.5,29.93,ENE,67,0.0,0.0,85,0.00,,,0.00,WUHU21623XXSP,2013-08-04 04:21:00,
2013-08-04 00:26:00,57.0,52.8,29.93,ENE,67,0.0,0.0,86,0.00,,,0.00,WUHU21623XXSP,2013-08-04 04:26:00,
2013-08-04 00:31:00,57.0,52.8,29.93,ENE,67,0.0,0.0,86,0.00,,,0.00,WUHU21623XXSP,2013-08-04 04:31:00,
2013-08-04 00:36:00,56.8,52.3,29.94,ENE,67,0.0,0.0,85,0.00,,,0.00,WUHU21623XXSP,2013-08-04 04:36:00,
2013-08-04 00:41:00,56.8,52.3,29.94,ENE,67,0.0,0.0,85,0.00,,,0.00,WUHU21623XXSP,2013-08-04 04:41:00,
2013-08-04 00:46:00,56.7,52.2,29.94,ENE,67,0.0,0.0,85,0.00,,,0.00,WUHU21623XXSP,2013-08-04 04:46:00,
2013-08-04 00:51:00,56.5,52.3,29.94,ENE,67,0.0,0.0,86,0.00,,,0.00,WUHU21623XXSP,2013-08-04 04:51:00,
2013-08-04 00:56:00,56.5,52.3,29.94,ENE,67,0.0,0.0,86,0.00,,,0.00,WUHU21623XXSP,2013-08-04 04:56:00,
2013-08-04 01:01:00,56.5,52.3,29.94,ENE,67,0.0,0.0,86,0.00,,,0.00,WUHU21623XXSP,2013-08-04 05:01:00,
2013-08-04 01:06:00,56.5,52.3,29.95,ENE,67,0.0,0.0,86,0.00,,,0.00,WUHU21623XXSP,2013-08-04 05:06:00,
2013-08-04 01:11:00,56.3,52.1,29.95,ENE,67,0.0,0.0,86,0.00,,,0.00,WUHU21623XXSP,2013-08-04 05:11:00,
2013-08-04 01:16:00,56.1,51.9,29.95,ENE,67,0.0,0.0,86,0.00,,,0.00,WUHU21623XXSP,2013-08-04 05:16:00,
2013-08-04 01:21:00,56.1,51.9,29.95,ENE,67,0.0,0.0,86,0.00,,,0.00,WUHU21623XXSP,2013-08-04 05:21:00,
2013-08-04 01:26:00,55.9,51.8,29.94,ENE,67,0.0,0.0,86,0.00,,,0.00,WUHU21623XXSP,2013-08-04 05:26:00,
2013-08-04 01:31:00,55.9,51.8,29.94,ENE,67,0.0,0.0,86,0.00,,,0.00,WUHU21623XXSP,2013-08-04 05:31:00,
2013-08-04 01:36:00,55.8,51.6,29.94,ENE,67,0.0,0.0,86,0.00,,,0.00,WUHU21623XXSP,2013-08-04 05:36:00,
2013-08-04 01:41:00,55.8,51.6,29.94,ENE,67,0.0,0.0,86,0.00,,,0.00,WUHU21623XXSP,2013-08-04 05:41:00,
2013-08-04 01:46:00,55.6,51.4,29.95,ENE,67,0.0,0.0,86,0.00,,,0.00,WUHU21623XXSP,2013-08-04 05:46:00,
2013-08-04 01:51:00,55.6,51.7,29.95,ENE,67,0.0,0.0,87,0.00,,,0.00,WUHU21623XXSP,2013-08-04 05:51:00,
2013-08-04 01:56:00,55.6,51.7,29.95,ENE,67,0.0,0.0,87,0.00,,,0.00,WUHU21623XXSP,2013-08-04 05:56:00,
2013-08-04 02:01:00,55.4,51.5,29.95,ENE,67,0.0,0.0,87,0.00,,,0.00,WUHU21623XXSP,2013-08-04 06:01:00,
2013-08-04 02:06:00,55.4,51.5,29.95,ENE,67,0.0,0.0,87,0.00,,,0.00,WUHU21623XXSP,2013-08-04 06:06:00,
2013-08-04 02:11:00,55.2,51.4,29.95,ENE,67,0.0,0.0,87,0.00,,,0.00,WUHU21623XXSP,2013-08-04 06:11:00,
2013-08-04 02:15:00,55.2,51.4,29.95,ENE,67,0.0,0.0,87,0.00,,,0.00,WUHU21623XXSP,2013-08-04 06:15:00,
2013-08-04 02:21:00,55.2,51.4,29.95,ENE,67,0.0,0.0,87,0.00,,,0.00,WUHU21623XXSP,2013-08-04 06:21:00,
2013-08-04 02:26:00,55.2,51.4,29.95,ENE,67,0.0,0.0,87,0.00,,,0.00,WUHU21623XXSP,2013-08-04 06:26:00,
2013-08-04 02:31:00,55.0,51.2,29.95,ENE,67,0.0,0.0,87,0.00,,,0.00,WUHU21623XXSP,2013-08-04 06:31:00,
2013-08-04 02:36:00,55.0,51.2,29.96,ENE,67,0.0,0.0,87,0.00,,,0.00,WUHU21623XXSP,2013-08-04 06:36:00,
2013-08-04 02:41:00,54.9,51.0,29.96,ENE,67,0.0,0.0,87,0.00,,,0.00,WUHU21623XXSP,2013-08-04 06:41:00,
2013-08-04 02:46:00,54.7,50.8,29.96,ENE,67,0.0,0.0,87,0.00,,,0.00,WUHU21623XXSP,2013-08-04 06:46:00,
2013-08-04 02:51:00,54.7,50.8,29.96,ENE,67,0.0,0.0,87,0.00,,,0.00,WUHU21623XXSP,2013-08-04 06:51:00,
2013-08-04 02:56:00,54.7,50.8,29.96,ENE,67,0.0,0.0,87,0.00,,,0.00,WUHU21623XXSP,2013-08-04 06:56:00,
2013-08-04 03:01:00,54.5,50.7,29.96,ENE,67,0.0,0.0,87,0.00,,,0.00,WUHU21623XXSP,2013-08-04 07:01:00,
2013-08-04 03:06:00,54.5,50.7,29.96,ENE,67,0.0,0.0,87,0.00,,,0.00,WUHU21623XXSP,2013-08-04 07:06:00,
2013-08-04 03:11:00,54.5,50.7,29.97,ENE,67,0.0,0.0,87,0.00,,,0.00,WUHU21623XXSP,2013-08-04 07:11:00,
2013-08-04 03:16:00,54.5,50.7,29.96,ENE,67,0.0,0.0,87,0.00,,,0.00,WUHU21623XXSP,2013-08-04 07:16:00,
2013-08-04 03:21:00,54.5,50.7,29.97,ENE,67,0.0,0.0,87,0.00,,,0.00,WUHU21623XXSP,2013-08-04 07:21:00,
2013-08-04 03:26:00,54.3,50.5,29.97,ENE,67,0.0,0.0,87,0.00,,,0.00,WUHU21623XXSP,2013-08-04 07:26:00,
2013-08-04 03:31:00,54.3,50.5,29.97,ENE,67,0.0,0.0,87,0.00,,,0.00,WUHU21623XXSP,2013-08-04 07:31:00,
2013-08-04 03:36:00,54.3,50.5,29.97,ENE,67,0.0,0.0,87,0.00,,,0.00,WUHU21623XXSP,2013-08-04 07:36:00,
2013-08-04 03:41:00,54.1,50.3,29.97,ENE,67,0.0,0.0,87,0.00,,,0.00,WUHU21623XXSP,2013-08-04 07:41:00,
2013-08-04 03:46:00,54.0,50.1,29.97,ENE,67,0.0,0.0,87,0.00,,,0.00,WUHU21623XXSP,2013-08-04 07:46:00,
2013-08-04 03:51:00,53.8,50.0,29.97,ENE,67,0.0,0.0,87,0.00,,,0.00,WUHU21623XXSP,2013-08-04 07:51:00,
2013-08-04 03:56:00,53.8,50.0,29.98,ENE,67,0.0,0.0,87,0.00,,,0.00,WUHU21623XXSP,2013-08-04 07:56:00,
2013-08-04 04:01:00,53.8,50.0,29.98,ENE,67,0.0,0.0,87,0.00,,,0.00,WUHU21623XXSP,2013-08-04 08:01:00,
2013-08-04 04:06:00,53.8,50.3,29.98,ENE,67,0.0,0.0,88,0.00,,,0.00,WUHU21623XXSP,2013-08-04 08:06:00,
2013-08-04 04:11:00,54.0,50.5,29.98,ENE,67,0.0,0.0,88,0.00,,,0.00,WUHU21623XXSP,2013-08-04 08:11:00,
2013-08-04 04:16:00,54.1,50.6,29.98,ENE,67,0.0,0.0,88,0.00,,,0.00,WUHU21623XXSP,2013-08-04 08:16:00,
2013-08-04 04:21:00,54.3,50.8,29.98,ENE,67,0.0,0.0,88,0.00,,,0.00,WUHU21623XXSP,2013-08-04 08:21:00,
2013-08-04 04:26:00,54.5,51.3,29.98,ENE,67,0.0,0.0,89,0.00,,,0.00,WUHU21623XXSP,2013-08-04 08:26:00,
2013-08-04 04:31:00,54.5,51.3,29.98,ENE,67,0.0,0.0,89,0.00,,,0.00,WUHU21623XXSP,2013-08-04 08:31:00,
2013-08-04 04:36:00,54.7,51.5,29.98,ENE,67,0.0,0.0,89,0.00,,,0.00,WUHU21623XXSP,2013-08-04 08:36:00,
2013-08-04 04:41:00,54.7,51.5,29.98,ENE,67,0.0,0.0,89,0.00,,,0.00,WUHU21623XXSP,2013-08-04 08:41:00,
2013-08-04 04:46:00,54.9,51.7,29.98,ENE,67,0.0,0.0,89,0.00,,,0.00,WUHU21623XXSP,2013-08-04 08:46:00,
2013-08-04 04:51:00,55.0,51.8,29.98,ENE,67,0.0,0.0,89,0.00,,,0.00,WUHU21623XXSP,2013-08-04 08:51:00,
2013-08-04 04:56:00,55.2,52.0,29.98,ENE,67,0.0,0.0,89,0.00,,,0.00,WUHU21623XXSP,2013-08-04 08:56:00,
2013-08-04 05:01:00,55.2,52.0,29.98,ENE,67,0.0,0.0,89,0.00,,,0.00,WUHU21623XXSP,2013-08-04 09:01:00,
2013-08-04 05:06:00,55.4,52.5,29.98,ENE,67,0.0,0.0,90,0.00,,,0.00,WUHU21623XXSP,2013-08-04 09:06:00,
2013-08-04 05:11:00,55.6,52.4,29.98,ENE,67,0.0,0.0,89,0.00,,,0.00,WUHU21623XXSP,2013-08-04 09:11:00,
2013-08-04 05:16:00,55.6,52.4,29.98,ENE,67,0.0,0.0,89,0.00,,,0.00,WUHU21623XXSP,2013-08-04 09:16:00,
2013-08-04 05:21:00,55.6,52.4,29.98,ENE,67,0.0,0.0,89,0.00,,,0.00,WUHU21623XXSP,2013-08-04 09:21:00,
2013-08-04 05:26:00,55.6,52.4,29.98,ENE,67,0.0,0.0,89,0.00,,,0.00,WUHU21623XXSP,2013-08-04 09:26:00,
2013-08-04 05:31:00,55.6,52.4,29.98,ENE,67,0.0,0.0,89,0.00,,,0.00,WUHU21623XXSP,2013-08-04 09:31:00,
2013-08-04 05:36:00,55.6,52.4,29.98,ENE,67,0.0,0.0,89,0.00,,,0.00,WUHU21623XXSP,2013-08-04 09:36:00,
2013-08-04 05:41:00,55.6,52.4,29.98,ENE,67,0.0,0.0,89,0.00,,,0.00,WUHU21623XXSP,2013-08-04 09:41:00,
2013-08-04 05:45:00,55.4,52.2,29.97,ENE,67,0.0,0.0,89,0.00,,,0.00,WUHU21623XXSP,2013-08-04 09:45:00,
2013-08-04 05:51:00,55.4,52.2,29.97,ENE,67,0.0,0.0,89,0.00,,,0.00,WUHU21623XXSP,2013-08-04 09:51:00,
2013-08-04 05:55:00,55.2,52.0,29.97,ENE,67,0.0,0.0,89,0.00,,,0.00,WUHU21623XXSP,2013-08-04 09:55:00,
2013-08-04 06:01:00,55.2,52.0,29.97,ENE,67,0.0,0.0,89,0.00,,,0.00,WUHU21623XXSP,2013-08-04 10:01:00,
2013-08-04 06:06:00,55.2,52.0,29.97,ENE,67,0.0,0.0,89,0.00,,,0.00,WUHU21623XXSP,2013-08-04 10:06:00,
2013-08-04 06:11:00,55.2,52.0,29.97,ENE,67,0.0,0.0,89,0.00,,,0.00,WUHU21623XXSP,2013-08-04 10:11:00,
2013-08-04 06:16:00,55.2,52.0,29.98,ENE,67,0.0,0.0,89,0.00,,,0.00,WUHU21623XXSP,2013-08-04 10:16:00,
2013-08-04 06:21:00,55.0,51.8,29.98,ENE,67,0.0,0.0,89,0.00,,,0.00,WUHU21623XXSP,2013-08-04 10:21:00,
2013-08-04 06:26:00,55.0,51.8,29.98,ENE,67,0.0,0.0,89,0.00,,,0.00,WUHU21623XXSP,2013-08-04 10:26:00,
2013-08-04 06:30:00,54.9,51.7,29.98,ENE,67,0.0,0.0,89,0.00,,,0.00,WUHU21623XXSP,2013-08-04 10:30:00,
2013-08-04 06:36:00,54.9,51.7,29.98,ENE,67,0.0,0.0,89,0.00,,,0.00,WUHU21623XXSP,2013-08-04 10:36:00,
2013-08-04 06:41:00,54.9,51.7,29.98,ENE,67,0.0,0.0,89,0.00,,,0.00,WUHU21623XXSP,2013-08-04 10:41:00,
2013-08-04 06:46:00,54.9,51.7,29.98,ENE,67,0.0,0.0,89,0.00,,,0.00,WUHU21623XXSP,2013-08-04 10:46:00,
2013-08-04 06:51:00,54.9,51.7,29.98,ENE,67,0.0,0.0,89,0.00,,,0.00,WUHU21623XXSP,2013-08-04 10:51:00,
2013-08-04 06:56:00,55.0,51.8,29.99,ENE,67,0.0,0.0,89,0.00,,,0.00,WUHU21623XXSP,2013-08-04 10:56:00,
2013-08-04 07:01:00,55.0,52.2,29.99,ENE,67,0.0,0.0,90,0.00,,,0.00,WUHU21623XXSP,2013-08-04 11:01:00,
2013-08-04 07:05:00,55.2,52.3,30.00,ENE,67,0.0,0.0,90,0.00,,,0.00,WUHU21623XXSP,2013-08-04 11:05:00,
2013-08-04 07:10:00,55.2,52.3,30.00,ENE,67,0.0,0.0,90,0.00,,,0.00,WUHU21623XXSP,2013-08-04 11:10:00,
2013-08-04 07:15:00,55.2,52.3,30.00,ENE,67,0.0,0.0,90,0.00,,,0.00,WUHU21623XXSP,2013-08-04 11:15:00,
2013-08-04 07:21:00,55.4,52.5,30.01,ENE,67,0.0,0.0,90,0.00,,,0.00,WUHU21623XXSP,2013-08-04 11:21:00,
2013-08-04 07:25:00,55.4,52.5,30.00,ENE,67,0.0,0.0,90,0.00,,,0.00,WUHU21623XXSP,2013-08-04 11:25:00,
2013-08-04 07:31:00,55.6,52.7,30.01,ENE,67,0.0,0.0,90,0.00,,,0.00,WUHU21623XXSP,2013-08-04 11:31:00,
2013-08-04 07:36:00,55.6,52.7,30.01,ENE,67,0.0,0.0,90,0.00,,,0.00,WUHU21623XXSP,2013-08-04 11:36:00,
2013-08-04 07:41:00,55.6,52.7,30.01,ENE,67,0.0,0.0,90,0.00,,,0.00,WUHU21623XXSP,2013-08-04 11:41:00,
2013-08-04 07:46:00,55.8,52.9,30.00,ENE,67,0.0,0.0,90,0.00,,,0.00,WUHU21623XXSP,2013-08-04 11:46:00,
2013-08-04 07:51:00,55.9,53.1,30.01,ENE,67,0.0,0.0,90,0.00,,,0.00,WUHU21623XXSP,2013-08-04 11:51:00,
2013-08-04 07:56:00,55.9,53.1,30.02,ENE,67,0.0,0.0,90,0.00,,,0.00,WUHU21623XXSP,2013-08-04 11:56:00,
2013-08-04 08:01:00,56.1,53.2,30.01,ENE,67,0.0,0.0,90,0.00,,,0.00,WUHU21623XXSP,2013-08-04 12:01:00,
2013-08-04 08:06:00,56.1,53.7,30.02,ENE,67,0.0,0.0,91,0.00,,,0.00,WUHU21623XXSP,2013-08-04 12:06:00,
2013-08-04 08:11:00,56.5,53.9,30.01,ENE,67,0.0,0.0,91,0.00,,,0.00,WUHU21623XXSP,2013-08-04 12:11:00,
2013-08-04 08:16:00,56.5,53.9,30.02,ENE,67,0.0,0.0,91,0.00,,,0.00,WUHU21623XXSP,2013-08-04 12:16:00,
2013-08-04 08:21:00,56.8,54.2,30.01,ENE,67,0.0,0.0,91,0.00,,,0.00,WUHU21623XXSP,2013-08-04 12:21:00,
2013-08-04 08:26:00,56.8,54.2,30.02,ENE,67,0.0,0.0,91,0.00,,,0.00,WUHU21623XXSP,2013-08-04 12:26:00,
2013-08-04 08:31:00,57.0,54.4,30.02,ENE,67,0.0,0.0,91,0.00,,,0.00,WUHU21623XXSP,2013-08-04 12:31:00,
2013-08-04 08:36:00,57.4,54.8,30.02,ENE,67,0.0,0.0,91,0.00,,,0.00,WUHU21623XXSP,2013-08-04 12:36:00,
2013-08-04 08:41:00,57.6,55.0,30.02,ENE,67,0.0,0.0,91,0.00,,,0.00,WUHU21623XXSP,2013-08-04 12:41:00,
2013-08-04 08:46:00,57.7,55.1,30.02,ENE,67,0.0,0.0,91,0.00,,,0.00,WUHU21623XXSP,2013-08-04 12:46:00,
2013-08-04 08:51:00,57.9,55.3,30.02,ENE,67,0.0,0.0,91,0.00,,,0.00,WUHU21623XXSP,2013-08-04 12:51:00,
2013-08-04 08:56:00,58.3,55.7,30.02,NE,45,0.0,0.0,91,0.00,,,0.00,WUHU21623XXSP,2013-08-04 12:56:00,
2013-08-04 09:01:00,58.6,56.0,30.02,NE,45,0.0,0.0,91,0.00,,,0.00,WUHU21623XXSP,2013-08-04 13:01:00,
2013-08-04 09:06:00,58.8,56.2,30.02,ENE,67,0.0,0.0,91,0.00,,,0.00,WUHU21623XXSP,2013-08-04 13:06:00,
2013-08-04 09:11:00,58.8,55.9,30.02,ENE,67,0.0,1.3,90,0.00,,,0.00,WUHU21623XXSP,2013-08-04 13:11:00,
2013-08-04 09:16:00,59.2,56.1,30.02,ENE,67,0.0,1.3,90,0.00,,,0.00,WUHU21623XXSP,2013-08-04 13:16:00,
2013-08-04 09:21:00,59.5,56.7,30.03,ENE,67,0.0,0.0,90,0.00,,,0.00,WUHU21623XXSP,2013-08-04 13:21:00,
2013-08-04 09:26:00,59.7,56.8,30.03,NE,53,1.6,1.8,90,0.00,,,0.00,WUHU21623XXSP,2013-08-04 13:26:00,
2013-08-04 09:31:00,60.1,56.9,30.02,East,90,0.0,1.8,89,0.00,,,0.00,WUHU21623XXSP,2013-08-04 13:31:00,
2013-08-04 09:36:00,60.4,56.6,30.03,NE,45,1.2,2.2,87,0.00,,,0.00,WUHU21623XXSP,2013-08-04 13:36:00,
2013-08-04 09:41:00,60.6,56.4,30.03,NNE,30,1.6,2.9,86,0.00,,,0.00,WUHU21623XXSP,2013-08-04 13:41:00,
2013-08-04 09:46:00,61.0,56.8,30.03,NNE,22,0.0,2.9,86,0.00,,,0.00,WUHU21623XXSP,2013-08-04 13:46:00,
2013-08-04 09:51:00,61.3,56.8,30.03,NE,45,0.9,0.9,85,0.00,,,0.00,WUHU21623XXSP,2013-08-04 13:51:00,
2013-08-04 09:56:00,61.5,57.0,30.03,NE,45,0.0,0.9,85,0.00,,,0.00,WUHU21623XXSP,2013-08-04 13:56:00,
2013-08-04 10:01:00,61.9,57.3,30.03,NE,45,1.1,1.6,85,0.00,,,0.00,WUHU21623XXSP,2013-08-04 14:01:00,
2013-08-04 10:06:00,61.9,57.0,30.03,NE,45,0.7,1.6,84,0.00,,,0.00,WUHU21623XXSP,2013-08-04 14:06:00,
2013-08-04 10:11:00,62.2,56.6,30.04,NE,45,0.9,0.9,82,0.00,,,0.00,WUHU21623XXSP,2013-08-04 14:11:00,
2013-08-04 10:16:00,62.4,56.8,30.03,East,90,1.0,1.3,82,0.00,,,0.00,WUHU21623XXSP,2013-08-04 14:16:00,
2013-08-04 10:21:00,62.8,57.2,30.04,NNE,22,2.7,2.7,82,0.00,,,0.00,WUHU21623XXSP,2013-08-04 14:21:00,
2013-08-04 10:26:00,63.0,57.3,30.04,NE,45,0.9,2.7,82,0.00,,,0.00,WUHU21623XXSP,2013-08-04 14:26:00,
2013-08-04 10:31:00,63.1,56.8,30.04,NE,45,0.0,2.7,80,0.00,,,0.00,WUHU21623XXSP,2013-08-04 14:31:00,
2013-08-04 10:36:00,63.5,56.8,30.04,East,90,0.0,0.7,79,0.00,,,0.00,WUHU21623XXSP,2013-08-04 14:36:00,
2013-08-04 10:41:00,63.7,56.7,30.05,NNE,22,1.3,1.6,78,0.00,,,0.00,WUHU21623XXSP,2013-08-04 14:41:00,
2013-08-04 10:46:00,64.0,57.0,30.05,NNE,22,0.9,1.6,78,0.00,,,0.00,WUHU21623XXSP,2013-08-04 14:46:00,
2013-08-04 10:51:00,64.2,56.5,30.05,NNE,22,0.7,1.6,76,0.00,,,0.00,WUHU21623XXSP,2013-08-04 14:51:00,
2013-08-04 10:56:00,64.4,56.3,30.05,NE,45,0.9,2.2,75,0.00,,,0.00,WUHU21623XXSP,2013-08-04 14:56:00,
2013-08-04 11:01:00,64.6,56.5,30.05,East,90,0.0,2.2,75,0.00,,,0.00,WUHU21623XXSP,2013-08-04 15:01:00,
2013-08-04 11:06:00,64.9,56.8,30.05,NE,45,1.2,1.8,75,0.00,,,0.00,WUHU21623XXSP,2013-08-04 15:06:00,
2013-08-04 11:11:00,65.1,57.3,30.05,NNE,22,0.0,1.8,76,0.00,,,0.00,WUHU21623XXSP,2013-08-04 15:11:00,
2013-08-04 11:16:00,65.3,57.1,30.05,NNE,22,1.3,1.6,75,0.00,,,0.00,WUHU21623XXSP,2013-08-04 15:16:00,
2013-08-04 11:21:00,65.5,56.9,30.04,NNE,22,0.9,1.8,74,0.00,,,0.00,WUHU21623XXSP,2013-08-04 15:21:00,
2013-08-04 11:26:00,65.8,56.9,30.05,NE,45,0.0,1.8,73,0.00,,,0.00,WUHU21623XXSP,2013-08-04 15:26:00,
2013-08-04 11:31:00,66.0,57.1,30.05,NNE,22,0.9,1.3,73,0.00,,,0.00,WUHU21623XXSP,2013-08-04 15:31:00,
2013-08-04 11:36:00,66.4,56.7,30.04,NNE,22,1.1,1.6,71,0.00,,,0.00,WUHU21623XXSP,2013-08-04 15:36:00,
2013-08-04 11:41:00,66.7,57.0,30.04,NNE,22,1.3,2.0,71,0.00,,,0.00,WUHU21623XXSP,2013-08-04 15:41:00,
2013-08-04 11:46:00,66.9,57.2,30.04,ENE,67,1.0,2.0,71,0.00,,,0.00,WUHU21623XXSP,2013-08-04 15:46:00,
2013-08-04 11:51:00,67.3,57.6,30.03,WNW,292,0.9,1.8,71,0.00,,,0.00,WUHU21623XXSP,2013-08-04 15:51:00,
2013-08-04 11:56:00,67.6,57.9,30.04,NNW,337,1.3,1.8,71,0.00,,,0.00,WUHU21623XXSP,2013-08-04 15:56:00,
2013-08-04 12:01:00,67.8,58.1,30.04,North,0,0.0,2.5,71,0.00,,,0.00,WUHU21623XXSP,2013-08-04 16:01:00,
2013-08-04 12:06:00,68.2,57.7,30.04,NE,45,0.7,2.5,69,0.00,,,0.00,WUHU21623XXSP,2013-08-04 16:06:00,
2013-08-04 12:11:00,68.2,56.8,30.03,NE,45,1.0,1.8,67,0.00,,,0.00,WUHU21623XXSP,2013-08-04 16:11:00,
2013-08-04 12:16:00,68.4,56.9,30.03,NNE,29,2.2,2.9,67,0.00,,,0.00,WUHU21623XXSP,2013-08-04 16:16:00,
2013-08-04 12:21:00,68.7,56.4,30.03,NNE,32,1.6,2.9,65,0.00,,,0.00,WUHU21623XXSP,2013-08-04 16:21:00,
2013-08-04 12:26:00,68.9,54.9,30.03,NNE,22,1.6,2.9,61,0.00,,,0.00,WUHU21623XXSP,2013-08-04 16:26:00,
2013-08-04 12:31:00,69.1,55.9,30.03,NNE,13,1.3,2.0,63,0.00,,,0.00,WUHU21623XXSP,2013-08-04 16:31:00,
2013-08-04 12:37:00,69.4,55.0,30.03,NNW,331,1.2,2.0,60,0.00,,,0.00,WUHU21623XXSP,2013-08-04 16:37:00,
2013-08-04 12:41:00,69.6,55.2,30.03,East,90,0.0,2.5,60,0.00,,,0.00,WUHU21623XXSP,2013-08-04 16:41:00,
2013-08-04 12:47:00,69.6,54.7,30.03,North,0,1.3,2.9,59,0.00,,,0.00,WUHU21623XXSP,2013-08-04 16:47:00,
2013-08-04 12:52:00,70.0,55.1,30.03,NE,36,1.8,3.8,59,0.00,,,0.00,WUHU21623XXSP,2013-08-04 16:52:00,
2013-08-04 12:57:00,70.2,54.9,30.03,NNE,22,1.3,3.8,58,0.00,,,0.00,WUHU21623XXSP,2013-08-04 16:57:00,
2013-08-04 13:02:00,70.3,55.4,30.03,North,2,1.2,2.5,59,0.00,,,0.00,WUHU21623XXSP,2013-08-04 17:02:00,
2013-08-04 13:07:00,70.5,55.5,30.03,North,0,1.6,2.5,59,0.00,,,0.00,WUHU21623XXSP,2013-08-04 17:07:00,
2013-08-04 13:12:00,70.9,55.9,30.03,SSE,157,0.9,2.7,59,0.00,,,0.00,WUHU21623XXSP,2013-08-04 17:12:00,
2013-08-04 13:17:00,71.2,56.2,30.03,NNE,22,3.6,3.6,59,0.00,,,0.00,WUHU21623XXSP,2013-08-04 17:17:00,
2013-08-04 13:22:00,71.2,56.2,30.03,NNE,21,1.3,3.6,59,0.00,,,0.00,WUHU21623XXSP,2013-08-04 17:22:00,
2013-08-04 13:27:00,71.2,55.7,30.03,NNE,20,2.3,3.4,58,0.00,,,0.00,WUHU21623XXSP,2013-08-04 17:27:00,
2013-08-04 13:32:00,71.2,55.7,30.03,North,350,1.1,3.4,58,0.00,,,0.00,WUHU21623XXSP,2013-08-04 17:32:00,
2013-08-04 13:37:00,71.2,55.2,30.02,North,4,1.4,2.7,57,0.00,,,0.00,WUHU21623XXSP,2013-08-04 17:37:00,
2013-08-04 13:42:00,71.4,55.3,30.02,NNW,336,1.5,2.7,57,0.00,,,0.00,WUHU21623XXSP,2013-08-04 17:42:00,
2013-08-04 13:47:00,71.4,54.8,30.03,NNE,22,1.8,2.7,56,0.00,,,0.00,WUHU21623XXSP,2013-08-04 17:47:00,
2013-08-04 13:52:00,71.4,55.3,30.03,East,97,0.8,2.7,57,0.00,,,0.00,WUHU21623XXSP,2013-08-04 17:52:00,
2013-08-04 13:57:00,71.8,55.2,30.02,NNE,22,1.7,2.9,56,0.00,,,0.00,WUHU21623XXSP,2013-08-04 17:57:00,
2013-08-04 14:02:00,71.8,55.2,30.02,North,353,1.5,2.9,56,0.00,,,0.00,WUHU21623XXSP,2013-08-04 18:02:00,
2013-08-04 14:07:00,71.8,55.2,30.02,North,0,2.2,2.5,56,0.00,,,0.00,WUHU21623XXSP,2013-08-04 18:07:00,
2013-08-04 14:12:00,71.8,55.7,30.02,North,0,0.0,2.5,57,0.00,,,0.00,WUHU21623XXSP,2013-08-04 18:12:00,
2013-08-04 14:17:00,71.8,56.7,30.02,NNW,331,1.3,1.8,59,0.00,,,0.00,WUHU21623XXSP,2013-08-04 18:17:00,
2013-08-04 14:22:00,72.0,56.3,30.02,North,1,1.0,1.8,58,0.00,,,0.00,WUHU21623XXSP,2013-08-04 18:22:00,
2013-08-04 14:27:00,72.0,55.8,30.02,NW,323,1.2,2.5,57,0.00,,,0.00,WUHU21623XXSP,2013-08-04 18:27:00,
2013-08-04 14:32:00,72.0,55.8,30.02,North,3,1.4,2.5,57,0.00,,,0.00,WUHU21623XXSP,2013-08-04 18:32:00,
2013-08-04 14:37:00,72.0,56.3,30.01,North,0,1.2,2.7,58,0.00,,,0.00,WUHU21623XXSP,2013-08-04 18:37:00,
2013-08-04 14:42:00,72.0,56.3,30.02,NW,315,2.0,2.7,58,0.00,,,0.00,WUHU21623XXSP,2013-08-04 18:42:00,
2013-08-04 14:47:00,72.0,56.3,30.02,NNE,22,1.6,2.2,58,0.00,,,0.00,WUHU21623XXSP,2013-08-04 18:47:00,
2013-08-04 14:52:00,71.8,55.7,30.02,North,4,1.7,3.4,57,0.00,,,0.00,WUHU21623XXSP,2013-08-04 18:52:00,
2013-08-04 14:57:00,72.0,55.8,30.02,NNE,15,1.6,3.4,57,0.00,,,0.00,WUHU21623XXSP,2013-08-04 18:57:00,
2013-08-04 15:02:00,71.8,56.2,30.02,North,350,0.8,2.2,58,0.00,,,0.00,WUHU21623XXSP,2013-08-04 19:02:00,
2013-08-04 15:07:00,71.8,56.2,30.02,NNE,22,2.7,5.1,58,0.00,,,0.00,WUHU21623XXSP,2013-08-04 19:07:00,
2013-08-04 15:12:00,71.6,56.5,30.02,NNE,22,2.9,5.1,59,0.00,,,0.00,WUHU21623XXSP,2013-08-04 19:12:00,
2013-08-04 15:17:00,71.4,56.4,30.02,NNE,22,1.6,4.5,59,0.00,,,0.00,WUHU21623XXSP,2013-08-04 19:17:00,
2013-08-04 15:22:00,71.2,56.7,30.02,NNE,28,2.3,4.5,60,0.00,,,0.00,WUHU21623XXSP,2013-08-04 19:22:00,
2013-08-04 15:27:00,71.4,56.4,30.02,NNE,33,2.1,3.8,59,0.00,,,0.00,WUHU21623XXSP,2013-08-04 19:27:00,
2013-08-04 15:32:00,71.4,55.9,30.02,NNE,22,1.7,3.1,58,0.00,,,0.00,WUHU21623XXSP,2013-08-04 19:32:00,
2013-08-04 15:37:00,71.4,55.9,30.01,NNE,14,1.6,3.1,58,0.00,,,0.00,WUHU21623XXSP,2013-08-04 19:37:00,
2013-08-04 15:42:00,71.2,55.7,30.02,NNW,337,1.6,2.9,58,0.00,,,0.00,WUHU21623XXSP,2013-08-04 19:42:00,
2013-08-04 15:47:00,71.2,55.7,30.02,NNE,22,3.1,4.0,58,0.00,,,0.00,WUHU21623XXSP,2013-08-04 19:47:00,
2013-08-04 15:52:00,70.9,55.4,30.01,North,9,1.3,4.0,58,0.00,,,0.00,WUHU21623XXSP,2013-08-04 19:52:00,
2013-08-04 15:57:00,70.7,55.2,30.01,North,2,1.1,3.1,58,0.00,,,0.00,WUHU21623XXSP,2013-08-04 19:57:00,
2013-08-04 16:02:00,70.5,55.0,30.01,NE,43,0.9,3.1,58,0.00,,,0.00,WUHU21623XXSP,2013-08-04 20:02:00,
2013-08-04 16:07:00,70.5,55.5,30.01,WNW,283,1.7,3.1,59,0.00,,,0.00,WUHU21623XXSP,2013-08-04 20:07:00,
2013-08-04 16:12:00,70.3,55.4,30.01,NE,38,1.4,2.5,59,0.00,,,0.00,WUHU21623XXSP,2013-08-04 20:12:00,
2013-08-04 16:17:00,70.3,55.9,30.01,NW,324,1.2,2.2,60,0.00,,,0.00,WUHU21623XXSP,2013-08-04 20:17:00,
2013-08-04 16:22:00,70.3,56.3,30.01,NE,45,1.3,2.0,61,0.00,,,0.00,WUHU21623XXSP,2013-08-04 20:22:00,
2013-08-04 16:27:00,70.3,55.4,30.00,NE,45,1.3,2.9,59,0.00,,,0.00,WUHU21623XXSP,2013-08-04 20:27:00,
2013-08-04 16:32:00,70.3,55.9,30.00,NNE,25,1.4,3.1,60,0.00,,,0.00,WUHU21623XXSP,2013-08-04 20:32:00,
2013-08-04 16:37:00,70.3,55.4,30.00,NNW,340,1.3,3.1,59,0.00,,,0.00,WUHU21623XXSP,2013-08-04 20:37:00,
2013-08-04 16:42:00,70.0,55.1,30.00,NNE,13,1.3,2.2,59,0.00,,,0.00,WUHU21623XXSP,2013-08-04 20:42:00,
2013-08-04 16:47:00,70.0,56.0,30.00,North,0,0.9,2.2,61,0.00,,,0.00,WUHU21623XXSP,2013-08-04 20:47:00,
2013-08-04 16:52:00,69.8,55.8,29.99,NNE,21,1.9,3.6,61,0.00,,,0.00,WUHU21623XXSP,2013-08-04 20:52:00,
2013-08-04 16:57:00,69.8,55.4,29.99,NNE,20,1.6,3.6,60,0.00,,,0.00,WUHU21623XXSP,2013-08-04 20:57:00,
2013-08-04 17:02:00,69.6,55.6,29.98,NW,315,0.7,3.6,61,0.00,,,0.00,WUHU21623XXSP,2013-08-04 21:02:00,
2013-08-04 17:07:00,69.6,56.0,29.98,North,5,1.5,2.2,62,0.00,,,0.00,WUHU21623XXSP,2013-08-04 21:07:00,
2013-08-04 17:12:00,69.6,55.6,29.99,NNE,24,1.6,2.7,61,0.00,,,0.00,WUHU21623XXSP,2013-08-04 21:12:00,
2013-08-04 17:17:00,69.4,55.5,29.99,North,7,1.3,2.7,61,0.00,,,0.00,WUHU21623XXSP,2013-08-04 21:17:00,
2013-08-04 17:22:00,69.4,55.9,29.99,NNE,13,1.3,3.1,62,0.00,,,0.00,WUHU21623XXSP,2013-08-04 21:22:00,
2013-08-04 17:27:00,69.4,55.9,30.00,NNE,22,0.9,3.1,62,0.00,,,0.00,WUHU21623XXSP,2013-08-04 21:27:00,
2013-08-04 17:32:00,69.4,55.9,30.00,SW,228,1.5,2.0,62,0.00,,,0.00,WUHU21623XXSP,2013-08-04 21:32:00,
2013-08-04 17:37:00,69.6,56.0,30.01,NNE,19,1.2,2.0,62,0.00,,,0.00,WUHU21623XXSP,2013-08-04 21:37:00,
2013-08-04 17:42:00,69.4,55.5,30.00,NNW,337,0.9,2.2,61,0.00,,,0.00,WUHU21623XXSP,2013-08-04 21:42:00,
2013-08-04 17:47:00,69.1,55.5,30.00,NNE,18,1.4,2.2,62,0.00,,,0.00,WUHU21623XXSP,2013-08-04 21:47:00,
2013-08-04 17:49:00,69.1,55.5,30.01,NNE,12,0.8,2.2,62,0.00,,,0.00,WUHU21623XXSP,2013-08-04 21:49:00,
2013-08-04 17:54:00,69.1,55.5,30.01,NW,316,1.7,2.9,62,0.00,,,0.00,WUHU21623XXSP,2013-08-04 21:54:00,
2013-08-04 17:59:00,68.9,55.8,30.01,NNW,343,1.1,2.9,63,0.00,,,0.00,WUHU21623XXSP,2013-08-04 21:59:00,
2013-08-04 18:04:00,68.9,56.2,30.01,NE,45,0.9,1.8,64,0.00,,,0.00,WUHU21623XXSP,2013-08-04 22:04:00,
2013-08-04 18:09:00,69.1,56.4,30.01,NNE,32,1.2,2.2,64,0.00,,,0.00,WUHU21623XXSP,2013-08-04 22:09:00,
2013-08-04 18:14:00,68.9,56.6,30.01,NE,40,2.4,3.6,65,0.00,,,0.00,WUHU21623XXSP,2013-08-04 22:14:00,
2013-08-04 18:19:00,68.7,56.0,30.01,North,8,1.3,3.6,64,0.00,,,0.00,WUHU21623XXSP,2013-08-04 22:19:00,
2013-08-04 18:24:00,68.7,55.6,30.01,NNE,24,0.9,2.5,63,0.00,,,0.00,WUHU21623XXSP,2013-08-04 22:24:00,
2013-08-04 18:29:00,68.5,55.8,30.01,NW,326,1.1,2.2,64,0.00,,,0.00,WUHU21623XXSP,2013-08-04 22:29:00,
2013-08-04 18:34:00,68.5,55.8,30.00,NNE,28,1.2,1.8,64,0.00,,,0.00,WUHU21623XXSP,2013-08-04 22:34:00,
2013-08-04 18:39:00,68.4,55.7,30.00,NE,37,1.3,1.8,64,0.00,,,0.00,WUHU21623XXSP,2013-08-04 22:39:00,
2013-08-04 18:44:00,68.4,55.2,30.00,NNE,22,0.0,2.0,63,0.00,,,0.00,WUHU21623XXSP,2013-08-04 22:44:00,
2013-08-04 18:49:00,68.4,55.7,29.99,NE,45,0.9,2.0,64,0.00,,,0.00,WUHU21623XXSP,2013-08-04 22:49:00,
2013-08-04 18:54:00,68.2,55.5,30.00,NNE,22,0.0,1.6,64,0.00,,,0.00,WUHU21623XXSP,2013-08-04 22:54:00,
2013-08-04 18:59:00,68.2,55.5,30.00,ENE,67,0.0,1.6,64,0.00,,,0.00,WUHU21623XXSP,2013-08-04 22:59:00,
2013-08-04 19:04:00,67.8,55.1,29.99,ENE,67,0.8,0.9,64,0.00,,,0.00,WUHU21623XXSP,2013-08-04 23:04:00,
2013-08-04 19:09:00,67.6,55.0,29.99,ENE,67,0.0,0.9,64,0.00,,,0.00,WUHU21623XXSP,2013-08-04 23:09:00,
2013-08-04 19:14:00,67.6,55.4,29.99,ENE,67,0.0,0.9,65,0.00,,,0.00,WUHU21623XXSP,2013-08-04 23:14:00,
2013-08-04 19:19:00,67.3,55.1,29.99,ENE,67,0.7,0.9,65,0.00,,,0.00,WUHU21623XXSP,2013-08-04 23:19:00,
2013-08-04 19:24:00,66.9,54.7,29.99,ENE,67,0.0,0.9,65,0.00,,,0.00,WUHU21623XXSP,2013-08-04 23:24:00,
2013-08-04 19:29:00,66.9,54.7,29.99,ENE,67,0.0,0.0,65,0.00,,,0.00,WUHU21623XXSP,2013-08-04 23:29:00,
2013-08-04 19:34:00,66.7,55.0,29.98,ENE,67,0.0,0.0,66,0.00,,,0.00,WUHU21623XXSP,2013-08-04 23:34:00,
2013-08-04 19:39:00,66.7,55.4,29.99,ENE,67,0.0,0.0,67,0.00,,,0.00,WUHU21623XXSP,2013-08-04 23:39:00,
2013-08-04 19:44:00,66.7,55.4,29.98,ENE,67,0.0,0.0,67,0.00,,,0.00,WUHU21623XXSP,2013-08-04 23:44:00,
2013-08-04 19:49:00,66.7,55.8,29.99,ENE,67,0.0,0.0,68,0.00,,,0.00,WUHU21623XXSP,2013-08-04 23:49:00,
2013-08-04 19:54:00,67.1,56.2,29.99,ENE,67,0.0,0.0,68,0.00,,,0.00,WUHU21623XXSP,2013-08-04 23:54:00,
2013-08-04 19:59:00,67.5,56.1,29.99,ENE,67,0.0,0.0,67,0.00,,,0.00,WUHU21623XXSP,2013-08-04 23:59:00,
2013-08-04 20:04:00,67.1,55.3,29.98,ENE,67,0.0,0.0,66,0.00,,,0.00,WUHU21623XXSP,2013-08-05 00:04:00,
2013-08-04 20:09:00,66.6,54.8,29.98,ENE,67,0.0,0.0,66,0.00,,,0.00,WUHU21623XXSP,2013-08-05 00:09:00,
2013-08-04 20:14:00,66.2,54.9,29.98,ENE,67,0.0,0.0,67,0.00,,,0.00,WUHU21623XXSP,2013-08-05 00:14:00,
2013-08-04 20:19:00,65.8,54.5,29.98,ENE,67,0.0,0.0,67,0.00,,,0.00,WUHU21623XXSP,2013-08-05 00:19:00,
2013-08-04 20:24:00,65.5,54.6,29.98,ENE,67,0.0,0.0,68,0.00,,,0.00,WUHU21623XXSP,2013-08-05 00:24:00,
2013-08-04 20:29:00,65.1,54.3,29.99,ENE,67,0.0,0.0,68,0.00,,,0.00,WUHU21623XXSP,2013-08-05 00:29:00,
2013-08-04 20:34:00,64.9,54.6,29.98,ENE,67,0.0,0.0,69,0.00,,,0.00,WUHU21623XXSP,2013-08-05 00:34:00,
2013-08-04 20:39:00,64.6,54.7,29.98,ENE,67,0.0,0.0,70,0.00,,,0.00,WUHU21623XXSP,2013-08-05 00:39:00,
2013-08-04 20:44:00,64.4,54.9,29.99,ENE,67,0.0,0.0,71,0.00,,,0.00,WUHU21623XXSP,2013-08-05 00:44:00,
2013-08-04 20:49:00,64.2,54.7,29.98,ENE,67,0.0,0.0,71,0.00,,,0.00,WUHU21623XXSP,2013-08-05 00:49:00,
2013-08-04 20:54:00,64.0,54.5,29.98,ENE,67,0.0,0.0,71,0.00,,,0.00,WUHU21623XXSP,2013-08-05 00:54:00,
2013-08-04 20:59:00,63.7,54.5,29.98,ENE,67,0.0,0.0,72,0.00,,,0.00,WUHU21623XXSP,2013-08-05 00:59:00,
2013-08-04 21:04:00,63.3,54.1,29.98,ENE,67,0.0,0.0,72,0.00,,,0.00,WUHU21623XXSP,2013-08-05 01:04:00,
2013-08-04 21:09:00,63.0,54.1,29.98,ENE,67,0.0,0.0,73,0.00,,,0.00,WUHU21623XXSP,2013-08-05 01:09:00,
2013-08-04 21:14:00,62.8,54.0,29.98,ENE,67,0.0,0.0,73,0.00,,,0.00,WUHU21623XXSP,2013-08-05 01:14:00,
2013-08-04 21:19:00,62.4,54.0,29.97,ENE,67,0.0,0.0,74,0.00,,,0.00,WUHU21623XXSP,2013-08-05 01:19:00,
2013-08-04 21:24:00,62.1,53.7,29.97,ENE,67,0.0,0.0,74,0.00,,,0.00,WUHU21623XXSP,2013-08-05 01:24:00,
2013-08-04 21:29:00,61.5,53.5,29.97,ENE,67,0.0,0.0,75,0.00,,,0.00,WUHU21623XXSP,2013-08-05 01:29:00,
2013-08-04 21:34:00,61.3,54.1,29.98,ENE,67,0.0,0.0,77,0.00,,,0.00,WUHU21623XXSP,2013-08-05 01:34:00,
2013-08-04 21:39:00,61.0,53.8,29.98,ENE,67,0.0,0.0,77,0.00,,,0.00,WUHU21623XXSP,2013-08-05 01:39:00,
2013-08-04 21:44:00,61.0,53.8,29.98,ENE,67,0.0,0.0,77,0.00,,,0.00,WUHU21623XXSP,2013-08-05 01:44:00,
2013-08-04 21:49:00,60.6,53.8,29.98,ENE,67,0.0,0.0,78,0.00,,,0.00,WUHU21623XXSP,2013-08-05 01:49:00,
2013-08-04 21:54:00,60.6,53.8,29.98,ENE,67,0.0,0.0,78,0.00,,,0.00,WUHU21623XXSP,2013-08-05 01:54:00,
2013-08-04 21:59:00,60.4,53.6,29.97,ENE,67,0.0,0.0,78,0.00,,,0.00,WUHU21623XXSP,2013-08-05 01:59:00,
2013-08-04 22:04:00,60.1,53.2,29.97,ENE,67,0.0,0.0,78,0.00,,,0.00,WUHU21623XXSP,2013-08-05 02:04:00,
2013-08-04 22:09:00,59.9,53.4,29.97,ENE,67,0.0,0.0,79,0.00,,,0.00,WUHU21623XXSP,2013-08-05 02:09:00,
2013-08-04 22:14:00,59.7,53.2,29.97,ENE,67,0.0,0.0,79,0.00,,,0.00,WUHU21623XXSP,2013-08-05 02:14:00,
2013-08-04 22:19:00,59.5,53.4,29.98,ENE,67,0.0,0.0,80,0.00,,,0.00,WUHU21623XXSP,2013-08-05 02:19:00,
2013-08-04 22:24:00,59.2,53.1,29.97,ENE,67,0.0,0.0,80,0.00,,,0.00,WUHU21623XXSP,2013-08-05 02:24:00,
2013-08-04 22:29:00,58.8,52.7,29.97,ENE,67,0.0,0.0,80,0.00,,,0.00,WUHU21623XXSP,2013-08-05 02:29:00,
2013-08-04 22:34:00,58.8,53.0,29.97,ENE,67,0.0,0.0,81,0.00,,,0.00,WUHU21623XXSP,2013-08-05 02:34:00,
2013-08-04 22:39:00,58.8,53.3,29.98,ENE,67,0.0,0.0,82,0.00,,,0.00,WUHU21623XXSP,2013-08-05 02:39:00,
2013-08-04 22:44:00,58.8,53.3,29.97,ENE,67,0.0,0.0,82,0.00,,,0.00,WUHU21623XXSP,2013-08-05 02:44:00,
2013-08-04 22:49:00,58.6,52.8,29.97,ENE,67,0.0,0.0,81,0.00,,,0.00,WUHU21623XXSP,2013-08-05 02:49:00,
2013-08-04 22:54:00,58.3,52.5,29.97,ENE,67,0.0,0.0,81,0.00,,,0.00,WUHU21623XXSP,2013-08-05 02:54:00,
2013-08-04 22:59:00,58.1,52.6,29.97,ENE,67,0.0,0.0,82,0.00,,,0.00,WUHU21623XXSP,2013-08-05 02:59:00,
2013-08-04 23:04:00,57.9,52.4,29.97,ENE,67,0.0,0.0,82,0.00,,,0.00,WUHU21623XXSP,2013-08-05 03:04:00,
2013-08-04 23:09:00,57.7,52.6,29.97,ENE,67,0.0,0.0,83,0.00,,,0.00,WUHU21623XXSP,2013-08-05 03:09:00,
2013-08-04 23:14:00,57.7,52.6,29.97,ENE,67,0.0,0.0,83,0.00,,,0.00,WUHU21623XXSP,2013-08-05 03:14:00,
2013-08-04 23:19:00,57.6,52.4,29.97,ENE,67,0.0,0.0,83,0.00,,,0.00,WUHU21623XXSP,2013-08-05 03:19:00,
2013-08-04 23:24:00,57.6,52.4,29.97,ENE,67,0.0,0.0,83,0.00,,,0.00,WUHU21623XXSP,2013-08-05 03:24:00,
2013-08-04 23:29:00,57.4,52.2,29.97,ENE,67,0.0,0.0,83,0.00,,,0.00,WUHU21623XXSP,2013-08-05 03:29:00,
2013-08-04 23:34:00,57.0,51.9,29.97,ENE,67,0.0,0.0,83,0.00,,,0.00,WUHU21623XXSP,2013-08-05 03:34:00,
2013-08-04 23:39:00,57.0,52.2,29.97,ENE,67,0.0,0.0,84,0.00,,,0.00,WUHU21623XXSP,2013-08-05 03:39:00,
2013-08-04 23:44:00,56.8,52.0,29.97,ENE,67,0.0,0.0,84,0.00,,,0.00,WUHU21623XXSP,2013-08-05 03:44:00,
2013-08-04 23:49:00,56.8,52.0,29.97,ENE,67,0.0,0.0,84,0.00,,,0.00,WUHU21623XXSP,2013-08-05 03:49:00,
2013-08-04 23:54:00,56.7,51.8,29.97,ENE,67,0.0,0.0,84,0.00,,,0.00,WUHU21623XXSP,2013-08-05 03:54:00,
2013-08-04 23:59:00,56.7,51.8,29.97,ENE,67,0.0,0.0,84,0.00,,,0.00,WUHU21623XXSP,2013-08-05 03:59:00,